• In Belarus
  • List of Countries
  • For 7 days
  • Water Temperature
  • Weather Map
  • Weather Widgets
  • user-avatar
    Login

    Hourly Weather Berat

    Today, 25 August, Sunday

    Time Temperature Precipitation Wind Pressure Humidity
    00:00 +26°C° 0 mm 2 mps 745 mmHg 56%
    01:00 +25°C° 0 mm 2 mps 745 mmHg 53%
    02:00 +25°C° 0 mm 2 mps 745 mmHg 53%
    03:00 +25°C° 0 mm 2 mps 745 mmHg 53%
    04:00 +24°C° 0 mm 2 mps 745 mmHg 53%
    05:00 +26°C° 0 mm 2 mps 745 mmHg 49%
    06:00 +28°C° 0 mm 2 mps 745 mmHg 46%
    07:00 +29°C° 0 mm 2 mps 745 mmHg 43%
    08:00 +31°C° 0 mm 2 mps 745 mmHg 37%
    09:00 +34°C° 0 mm 1 mps 745 mmHg 32%
    10:00 +36°C° 0 mm 1 mps 745 mmHg 26%
    11:00 +38°C° 0 mm 2 mps 745 mmHg 25%
    12:00 +38°C° 0 mm 2 mps 745 mmHg 24%
    13:00 +39°C° 0 mm 3 mps 745 mmHg 23%
    14:00 +37°C° 0 mm 3 mps 744 mmHg 26%
    15:00 +36°C° 0 mm 3 mps 744 mmHg 29%
    16:00 +35°C° 0 mm 3 mps 744 mmHg 33%
    17:00 +32°C° 0.1 mm 2 mps 744 mmHg 39%
    18:00 +30°C° 0.1 mm 2 mps 744 mmHg 45%
    19:00 +28°C° 0.1 mm 1 mps 744 mmHg 51%
    20:00 +28°C° 0 mm 1 mps 744 mmHg 53%
    21:00 +27°C° 0 mm 1 mps 745 mmHg 54%
    22:00 +27°C° 0 mm 1 mps 745 mmHg 56%
    23:00 +26°C° 0 mm 1 mps 745 mmHg 57%

    Tomorrow, 26 August, Monday

    Time Temperature Precipitation Wind Pressure Humidity
    00:00 +26°C° 0 mm 1 mps 745 mmHg 57%
    01:00 +25°C° 0 mm 1 mps 744 mmHg 58%
    02:00 +25°C° 0 mm 2 mps 744 mmHg 56%
    03:00 +25°C° 0 mm 2 mps 744 mmHg 53%
    04:00 +25°C° 0 mm 2 mps 744 mmHg 51%
    05:00 +26°C° 0 mm 2 mps 745 mmHg 45%
    06:00 +28°C° 0 mm 2 mps 745 mmHg 40%
    07:00 +30°C° 0 mm 2 mps 745 mmHg 35%
    08:00 +32°C° 0 mm 2 mps 745 mmHg 30%
    09:00 +35°C° 0 mm 2 mps 745 mmHg 26%
    10:00 +38°C° 0 mm 2 mps 745 mmHg 22%
    11:00 +38°C° 0 mm 2 mps 745 mmHg 22%
    12:00 +38°C° 0 mm 3 mps 745 mmHg 22%
    13:00 +38°C° 0 mm 4 mps 745 mmHg 23%
    14:00 +37°C° 0 mm 3 mps 745 mmHg 27%
    15:00 +35°C° 0 mm 3 mps 744 mmHg 31%
    16:00 +34°C° 0 mm 2 mps 744 mmHg 35%
    17:00 +32°C° 0 mm 2 mps 744 mmHg 39%
    18:00 +30°C° 0 mm 1 mps 744 mmHg 44%
    19:00 +29°C° 0 mm 1 mps 744 mmHg 49%
    20:00 +28°C° 0 mm 1 mps 745 mmHg 48%
    21:00 +28°C° 0 mm 1 mps 745 mmHg 48%
    22:00 +28°C° 0 mm 1 mps 745 mmHg 47%
    23:00 +27°C° 0 mm 2 mps 745 mmHg 46%

    Day after tomorrow, 27 August, Tuesday

    Time Temperature Precipitation Wind Pressure Humidity
    00:00 +27°C° 0 mm 2 mps 745 mmHg 45%
    01:00 +26°C° 0 mm 2 mps 745 mmHg 45%
    02:00 +26°C° 0 mm 2 mps 745 mmHg 44%
    03:00 +26°C° 0 mm 2 mps 745 mmHg 43%
    04:00 +26°C° 0 mm 2 mps 745 mmHg 43%
    05:00 +27°C° 0 mm 2 mps 745 mmHg 39%
    06:00 +29°C° 0 mm 2 mps 745 mmHg 36%
    07:00 +30°C° 0 mm 2 mps 745 mmHg 33%
    08:00 +32°C° 0 mm 1 mps 746 mmHg 30%
    09:00 +34°C° 0 mm 1 mps 746 mmHg 26%
    10:00 +37°C° 0 mm 1 mps 746 mmHg 23%
    11:00 +37°C° 0 mm 2 mps 746 mmHg 23%
    12:00 +37°C° 0 mm 3 mps 746 mmHg 24%
    13:00 +37°C° 0 mm 4 mps 745 mmHg 25%
    14:00 +36°C° 0 mm 3 mps 745 mmHg 27%
    15:00 +35°C° 0 mm 3 mps 745 mmHg 30%
    16:00 +34°C° 0 mm 3 mps 745 mmHg 33%
    17:00 +31°C° 0.1 mm 2 mps 745 mmHg 39%
    18:00 +30°C° 0.1 mm 2 mps 745 mmHg 45%
    19:00 +28°C° 0.1 mm 1 mps 745 mmHg 52%
    20:00 +27°C° 0 mm 1 mps 746 mmHg 53%
    21:00 +26°C° 0 mm 2 mps 746 mmHg 54%
    22:00 +26°C° 0 mm 2 mps 746 mmHg 55%
    23:00 +26°C° 0 mm 2 mps 746 mmHg 55%

    28 August, Wednesday

    Time Temperature Precipitation Wind Pressure Humidity
    00:00 +25°C° 0 mm 2 mps 745 mmHg 54%
    01:00 +25°C° 0 mm 2 mps 745 mmHg 54%
    02:00 +25°C° 0 mm 2 mps 745 mmHg 54%
    03:00 +25°C° 0 mm 2 mps 745 mmHg 54%
    04:00 +24°C° 0 mm 2 mps 745 mmHg 54%
    05:00 +26°C° 0 mm 1 mps 745 mmHg 50%
    06:00 +27°C° 0 mm 1 mps 745 mmHg 45%
    07:00 +29°C° 0 mm 1 mps 745 mmHg 41%
    08:00 +31°C° 0 mm 1 mps 745 mmHg 36%
    09:00 +33°C° 0 mm 1 mps 745 mmHg 31%
    10:00 +36°C° 0 mm 1 mps 745 mmHg 26%
    11:00 +37°C° 0 mm 2 mps 745 mmHg 26%
    12:00 +37°C° 0 mm 3 mps 745 mmHg 26%
    13:00 +37°C° 0 mm 4 mps 744 mmHg 26%
    14:00 +35°C° 0 mm 3 mps 744 mmHg 30%
    15:00 +34°C° 0 mm 3 mps 744 mmHg 34%
    16:00 +32°C° 0 mm 2 mps 744 mmHg 37%
    17:00 +31°C° 0 mm 2 mps 744 mmHg 42%
    18:00 +29°C° 0 mm 1 mps 744 mmHg 48%
    19:00 +27°C° 0 mm 1 mps 744 mmHg 53%
    20:00 +27°C° 0 mm 1 mps 744 mmHg 54%
    21:00 +27°C° 0 mm 1 mps 744 mmHg 55%
    22:00 +26°C° 0 mm 1 mps 745 mmHg 55%
    23:00 +24°C° 0 mm 0 mps 744 mmHg 56%

    29 August, Thursday

    Time Temperature Precipitation Wind Pressure Humidity
    00:00 +23°C° 0 mm 0 mps 744 mmHg 56%
    01:00 +23°C° 0 mm 0 mps 744 mmHg 56%
    02:00 +25°C° 0 mm 1 mps 744 mmHg 57%
    03:00 +25°C° 0 mm 1 mps 744 mmHg 58%
    04:00 +24°C° 0 mm 1 mps 744 mmHg 59%
    05:00 +26°C° 0 mm 1 mps 744 mmHg 54%
    06:00 +27°C° 0 mm 1 mps 744 mmHg 49%
    07:00 +29°C° 0 mm 1 mps 744 mmHg 44%
    08:00 +31°C° 0 mm 1 mps 744 mmHg 39%
    09:00 +34°C° 0 mm 2 mps 744 mmHg 34%
    10:00 +36°C° 0 mm 2 mps 744 mmHg 29%
    11:00 +36°C° 0 mm 3 mps 744 mmHg 30%
    12:00 +35°C° 0 mm 4 mps 744 mmHg 31%
    13:00 +35°C° 0 mm 5 mps 743 mmHg 32%
    14:00 +34°C° 0.1 mm 4 mps 743 mmHg 36%
    15:00 +33°C° 0.1 mm 3 mps 743 mmHg 40%
    16:00 +31°C° 0.1 mm 2 mps 743 mmHg 43%
    17:00 +30°C° 0 mm 2 mps 743 mmHg 48%
    18:00 +28°C° 0 mm 1 mps 743 mmHg 52%
    19:00 +27°C° 0 mm 1 mps 743 mmHg 56%
    20:00 +26°C° 0 mm 1 mps 743 mmHg 57%
    21:00 +26°C° 0 mm 1 mps 743 mmHg 59%
    22:00 +25°C° 0 mm 1 mps 744 mmHg 61%
    23:00 +25°C° 0 mm 1 mps 744 mmHg 62%

    30 August, Friday

    Time Temperature Precipitation Wind Pressure Humidity
    00:00 +24°C° 0 mm 1 mps 743 mmHg 63%
    01:00 +24°C° 0 mm 1 mps 743 mmHg 65%
    02:00 +24°C° 0 mm 1 mps 743 mmHg 65%
    03:00 +24°C° 0 mm 1 mps 743 mmHg 65%
    04:00 +23°C° 0 mm 1 mps 743 mmHg 65%
    05:00 +25°C° 0 mm 1 mps 744 mmHg 59%
    06:00 +26°C° 0 mm 1 mps 744 mmHg 53%
    07:00 +28°C° 0 mm 1 mps 744 mmHg 47%
    08:00 +30°C° 0 mm 1 mps 744 mmHg 41%
    09:00 +32°C° 0 mm 1 mps 744 mmHg 35%
    10:00 +35°C° 0 mm 1 mps 745 mmHg 29%
    11:00 +36°C° 0 mm 2 mps 744 mmHg 30%
    12:00 +36°C° 0 mm 3 mps 744 mmHg 30%
    13:00 +36°C° 0 mm 4 mps 744 mmHg 30%
    14:00 +35°C° 0 mm 4 mps 744 mmHg 35%
    15:00 +34°C° 0 mm 3 mps 743 mmHg 39%
    16:00 +33°C° 0 mm 3 mps 743 mmHg 43%
    17:00 +30°C° 0 mm 2 mps 743 mmHg 50%
    18:00 +28°C° 0 mm 2 mps 744 mmHg 56%
    19:00 +27°C° 0 mm 1 mps 744 mmHg 63%
    20:00 +26°C° 0 mm 1 mps 744 mmHg 64%
    21:00 +26°C° 0 mm 1 mps 744 mmHg 65%
    22:00 +25°C° 0 mm 1 mps 745 mmHg 65%
    23:00 +25°C° 0 mm 1 mps 745 mmHg 63%
    Show more